Weather History for Alliance, NE

Change the Weather History Date:

Thursday, September 27, 2012

  Actual Average Record
Temperature  
Mean Temperature 53 °F 54 °F  
Max Temperature 70 °F 71 °F 92 °F (1952)
Min Temperature 36 °F 37 °F 17 °F (1908)
Degree Days  
Heating Degree Days 12 11  
Month to date heating degree days 145 172  
Since 1 July heating degree days 156 209  
Cooling Degree Days 0 0  
Month to date cooling degree days 49 38  
Year to date cooling degree days 958 561  
Growing Degree Days 3 (Base 50)    
Moisture  
Dew Point 42 °F    
Average Humidity 61    
Maximum Humidity 92    
Minimum Humidity 30    
Precipitation  
Precipitation T in 0.04 in 0.45 in (1912)
Month to date precipitation T 1.26  
Year to date precipitation 5.81 13.67  
Sea Level Pressure  
Sea Level Pressure 30.14 in    
Wind  
Wind Speed 9 mph (SSE)    
Max Wind Speed 26 mph    
Max Gust Speed 32 mph    
Visibility 10 miles    
Events Rain    
T = Trace of Precipitation, MM = Missing Value Source: NWS Daily Summary

Daily Weather History Graph

Daily Weather History Graph

Search for Another Location

Airport:

Trip Planner

Search our weather history database for the weather conditions in past years. The results will help you decide how hot, cold, wet, or windy it might be!

Date:

Astronomy

Sep. 27, 2012 Rise Set
Actual Time 6:44 AM MDT 6:38 PM MDT
Civil Twilight 6:16 AM MDT 7:06 PM MDT
Nautical Twilight 5:44 AM MDT 7:39 PM MDT
Astronomical Twilight 5:11 AM MDT 8:11 PM MDT
Moon 5:12 PM MDT (9/27) 4:13 AM MDT (9/27)
Length of Visible Light 12h 49m
Length of Day
11h 54m
Waxing Gibbous, 94% of the Moon is Illuminated
Sep 27
Waxing Gibbous
Sep 29
Full
Oct 8
Last Quarter
Oct 15
New
Oct 21
First Quarter

Hourly Weather History & Observations

Time (MDT) Temp. Windchill Dew Point Humidity Pressure Visibility Wind Dir Wind Speed Gust Speed Precip Events Conditions
12:53 AM 46.0 °F 43.1 °F 32.0 °F 58% 30.11 in 10.0 mi SSE 5.8 mph - N/A   Clear
1:53 AM 44.1 °F 41.5 °F 33.1 °F 65% 30.12 in 10.0 mi South 4.6 mph - N/A   Clear
2:53 AM 44.1 °F - 34.0 °F 68% 30.12 in 10.0 mi Calm Calm - N/A   Clear
3:53 AM 42.8 °F - 35.6 °F 76% 30.19 in 10.0 mi Calm Calm - N/A   Clear
4:53 AM 43.0 °F - 37.9 °F 82% 30.12 in 10.0 mi Calm Calm - N/A   Clear
5:53 AM 43.0 °F 39.5 °F 39.9 °F 89% 30.13 in 10.0 mi East 5.8 mph - N/A   Clear
6:53 AM 37.9 °F - 36.0 °F 93% 30.18 in 5.0 mi Calm Calm - N/A   Clear
7:53 AM 44.1 °F 42.5 °F 41.0 °F 89% 30.17 in 10.0 mi SE 3.5 mph - N/A   Clear
8:53 AM 54.0 °F - 48.0 °F 80% 30.17 in 10.0 mi South 6.9 mph - N/A   Clear
9:53 AM 64.0 °F - 48.0 °F 56% 30.15 in 10.0 mi South 18.4 mph 24.2 mph N/A   Clear
10:53 AM 66.0 °F - 45.0 °F 47% 30.16 in 10.0 mi South 13.8 mph - N/A   Clear
11:53 AM 69.8 °F - 41.0 °F 35% 30.20 in 10.0 mi South 20.7 mph - N/A   Clear
12:53 PM 64.9 °F - 48.0 °F 54% 30.15 in 10.0 mi South 20.7 mph 26.5 mph N/A   Partly Cloudy
1:53 PM 64.9 °F - 43.0 °F 45% 30.15 in 10.0 mi South 18.4 mph 25.3 mph N/A   Clear
2:53 PM 68.0 °F - 37.0 °F 32% 30.13 in 10.0 mi SSE 21.9 mph 28.8 mph N/A   Clear
3:53 PM 68.0 °F - 36.0 °F 31% 30.11 in 10.0 mi South 15.0 mph 23.0 mph N/A   Clear
4:53 PM 66.0 °F - 36.0 °F 33% 30.11 in 10.0 mi SSE 17.3 mph 25.3 mph N/A   Scattered Clouds
5:53 PM 64.0 °F - 45.0 °F 50% 30.12 in 10.0 mi South 15.0 mph - N/A   Overcast
6:53 PM 62.1 °F - 46.0 °F 56% 30.15 in 10.0 mi South 10.4 mph - N/A   Overcast
7:53 PM 59.0 °F - 48.9 °F 69% 30.15 in 10.0 mi South 8.1 mph - N/A   Overcast
8:53 PM 57.9 °F - 46.9 °F 67% 30.14 in 10.0 mi SSE 4.6 mph - N/A   Overcast
9:53 PM 57.0 °F - 46.9 °F 69% 30.12 in 10.0 mi SSE 3.5 mph - N/A   Overcast
10:53 PM 55.0 °F - 48.9 °F 80% 30.13 in 10.0 mi South 5.8 mph - 0.00 in Rain Light Rain
11:53 PM 53.1 °F - 48.0 °F 83% 30.13 in 10.0 mi SSE 4.6 mph - N/A   Overcast